Погода в Ермакове

Россия / Ярославская область     58°00′32″N   39°00′52″E
темп.,
°C
ветер,
м/с
пор.,
м/с
влажн.,
%
обл.,
%
осадки,
мм/ч
давл.,
гПа
погр.,
м
13 апреля, вт
вт1300:00+7юв41288100 0.0 1029466
03:00+6юв41095100 0.0 1028300
06:00+6юв4119671 0.0 1027251
09:00+10ююв41083100 0.0 1026346
12:00+17ю51054100 0.0 1024886
15:00+19ю5950100 0.0 10231137
18:00+16ю4957100 0.0 1022225
21:00+11ююв3117299 0.0 1023181
14 апреля, ср
ср1400:00+10ююв3117387 0.0 1022203
03:00+9ююв311755 0.0 1021201
06:00+8ююв3107993 0.0 1021201
09:00+13ю496198 0.0 1020359
12:00+17ю5850100 0.0 1019928
15:00+19ююз4747100 0.0 10181525
18:00+15ю2457100 0.0 101872
21:00+12ю2466100 0.0 101847
15 апреля, чт
чт1500:00+10юз117314 0.0 101810
03:00+7зсз228393 0.0 101922
06:00+7св2495100 0.0 1019103
09:00+9св3588100 0.0 1020427
12:00+8св5787100 0.0 1021514
15:00+8св5881100 0.0 1022614
18:00+6св51185100 0.0 1023553
21:00+5всв41288100 0.1 1024552
16 апреля, пт
пт1600:00+5св51282100 0.1 1024590
03:00+4всв51185100 0.1 1025530
06:00+3всв41174100 0.0 1025496
09:00+4всв5966100 0.0 1026548
12:00+8всв5855100 0.0 1026845
15:00+10всв574689 0.0 10261087
18:00+9всв494843 0.0 1026958
21:00+6св4126338 0.0 1028371
17 апреля, сб
сб1700:00+4всв4136662 0.0 1028384
03:00+3всв412725 0.0 1029323
06:00+2всв4117688 0.0 1031293
09:00+7всв595514 0.0 1031562
12:00+11всв46415 0.0 10311138
15:00+12всв45390 0.0 10301411
18:00+11св36483 0.0 1030445
21:00+6св25683 0.0 103183